File timestamp: Sat Sep 10 00:00:00 2016, Internal temp: 17.7001953125
1473465601, 0.049795389175415, -0.135651528835297, 0.172774106264114, 32158, 31389, 23425, 27.074031829834
1473465602, 0.0447226874530315, -0.135262206196785, 0.173892006278038, 32139, 31388, 23443, NaN
1473465603, 0.0381588190793991, -0.135263875126839, 0.173842832446098, 32145, 31391, 23433, NaN
1473465604, 0.0315830372273922, -0.134832203388214, 0.173403933644295, 32143, 31394, 23427, NaN
1473465605, 0.0240983199328184, -0.134918987751007, 0.173460096120834, 32134, 31379, 23431, NaN
1473465606, 0.0175418723374605, -0.135047852993011, 0.173744112253189, 32142, 31381, 23433, NaN
1473465607, 0.0109179886057973, -0.134096950292587, 0.173677936196327, 32142, 31388, 23440, NaN
1473465608, 0.00475606322288513, -0.133882105350494, 0.17400911450386, 32151, 31386, 23433, NaN
1473465609, -0.00106118456460536, -0.133148685097694, 0.173900380730629, 32141, 31397, 23437, NaN
1473465610, -0.00672520324587822, -0.132976323366165, 0.172881230711937, 32141, 31387, 23420, NaN
1473465611, -0.011563191190362, -0.132841572165489, 0.17277304828167, 32142, 31387, 23424, NaN
1473465612, -0.0169800948351622, -0.133695781230927, 0.172465965151787, 32143, 31376, 23432, NaN
1473465613, -0.0223755873739719, -0.132630094885826, 0.171535789966583, 32136, 31396, 23439, NaN
1473465614, -0.0283916015177965, -0.131550878286362, 0.17088420689106, 32140, 31384, 23442, NaN
1473465615, -0.0336659997701645, -0.130824461579323, 0.170601561665535, 32141, 31383, 23426, NaN
1473465616, -0.0369931012392044, -0.130674377083778, 0.17133691906929, 32151, 31395, 23421, NaN
1473465617.008, -0.0392673052847385, -0.130530834197998, 0.171516165137291, 32132, 31390, 23445, NaN
1473465618.008, -0.0429497882723808, -0.130085647106171, 0.171191424131393, 32146, 31380, 23441, NaN
1473465618.008, -0.0445742346346378, -0.130187183618546, 0.17128013074398, 32150, 31378, 23425, NaN
1473465619.016, -0.0453879870474339, -0.130183488130569, 0.170806258916855, 32138, 31392, 23421, NaN
1473465620.016, -0.0452330000698566, -0.130712047219276, 0.169347941875458, 32149, 31392, 23429, NaN
1473465621.016, -0.0439808778464794, -0.130371510982513, 0.169062465429306, 32153, 31394, 23419, NaN
1473465622.016, -0.0394836030900478, -0.130067780613899, 0.169318914413452, 32140, 31390, 23424, NaN
1473465622.016, -0.0287523902952671, -0.130039930343628, 0.169589519500732, 32130, 31396, 23432, NaN
1473465622.382, -0.0225296691060066, -0.130176141858101, 0.169175833463669, 32150, 31393, 23426, NaN
1473465623.382, 0.00117690768092871, -0.130251809954643, 0.168204933404922, 32149, 31381, 23430, NaN
1473465624.382, 0.0334292501211166, -0.130082175135612, 0.167312741279602, 32147, 31382, 23444, NaN
1473465625.382, 0.0714059695601463, -0.129253253340721, 0.166963383555412, 32138, 31374, 23443, NaN
1473465625.382, 0.11423958837986, -0.128757327795029, 0.167025029659271, 32147, 31397, 23437, NaN
1473465626.388, 0.159021228551865, -0.128363773226738, 0.16701452434063, 32140, 31386, 23429, NaN
1473465627.388, 0.118432089686394, -0.129057630896568, 0.167043045163155, 32141, 31402, 23441, NaN
1473465628.388, 0.0696218833327293, -0.12972104549408, 0.167331472039223, 32133, 31379, 23446, NaN
1473465629.388, 0.0286573469638824, -0.129148244857788, 0.167818978428841, 32150, 31386, 23435, NaN
1473465630.388, -0.00514859799295664, -0.128081202507019, 0.167892724275589, 32154, 31383, 23424, NaN
1473465631.388, -0.0324645452201366, -0.128196224570274, 0.168536126613617, 32148, 31385, 23427, NaN
1473465632.388, -0.0539380386471748, -0.128575950860977, 0.168862491846085, 32159, 31396, 23426, NaN
1473465633.388, -0.0701929554343224, -0.128270000219345, 0.168639525771141, 32151, 31384, 23431, NaN
1473465634.388, -0.0818270668387413, -0.127887830138206, 0.167566657066345, 32150, 31388, 23426, NaN
1473465635.388, -0.089409776031971, -0.127603158354759, 0.168360933661461, 32137, 31390, 23435, NaN
1473465636.388, -0.0934801027178764, -0.128807097673416, 0.168377682566643, 32154, 31390, 23432, NaN
1473465637.388, -0.0945450738072395, -0.128857016563416, 0.167983055114746, 32137, 31386, 23428, NaN
1473465638.388, -0.0930783376097679, -0.12894132733345, 0.167822033166885, 32152, 31387, 23427, NaN
1473465639.388, -0.0895192474126816, -0.12899623811245, 0.168041169643402, 32156, 31381, 23425, NaN
1473465640.388, -0.0842722803354263, -0.129941418766975, 0.168385878205299, 32134, 31381, 23431, NaN
1473465641.388, -0.0777067989110947, -0.129471078515053, 0.168831691145897, 32149, 31386, 23429, NaN
1473465642.388, -0.0701571926474571, -0.12998528778553, 0.169241741299629, 32146, 31390, 23429, NaN
1473465643.396, -0.0619233474135399, -0.129585981369019, 0.169827938079834, 32155, 31396, 23434, NaN
1473465643.396, -0.053271371871233, -0.13025289773941, 0.169341549277306, 32149, 31399, 23437, NaN
1473465644.404, -0.0444347001612186, -0.130457997322083, 0.170068576931953, 32148, 31389, 23428, NaN
1473465645.404, -0.035615336149931, -0.130500748753548, 0.169670641422272, 32146, 31394, 23424, NaN
1473465646.404, -0.0269853509962559, -0.131087437272072, 0.169994086027145, 32143, 31378, 23432, NaN
1473465647.404, -0.0186885744333267, -0.130577996373177, 0.170332401990891, 32144, 31395, 23419, NaN
1473465647.404, -0.0108423847705126, -0.130367934703827, 0.170574232935905, 32142, 31382, 23432, NaN
1473465648.41, -0.0035396353341639, -0.130122750997543, 0.170518338680267, 32138, 31395, 23424, NaN
1473465649.41, 0.00314935715869069, -0.130451306700706, 0.169810339808464, 32144, 31383, 23439, NaN
1473465650.41, 0.00917477533221245, -0.131052881479263, 0.170135945081711, 32137, 31384, 23427, NaN
1473465651.41, 0.0145052568987012, -0.130606919527054, 0.170341715216637, 32138, 31381, 23423, NaN
1473465651.41, 0.0191258508712053, -0.130438506603241, 0.170206695795059, 32156, 31382, 23429, NaN
1473465652.416, 0.0230360198765993, -0.13025090098381, 0.169218957424164, 32151, 31393, 23434, NaN
1473465653.416, 0.0262476988136768, -0.129924774169922, 0.169589325785637, 32139, 31397, 23438, NaN
1473465654.416, 0.0287834163755178, -0.130315274000168, 0.169509902596474, 32141, 31391, 23438, NaN
1473465655.416, 0.0306745190173388, -0.130213409662247, 0.16891685128212, 32150, 31382, 23438, 30.6055393218994
1473465656.416, 0.0298527535051107, -0.130106672644615, 0.168070659041405, 32144, 31389, 23417, NaN
1473465657.416, 0.0250395238399506, -0.130096212029457, 0.167983382940292, 32146, 31395, 23424, NaN
1473465658.416, 0.0177259687334299, -0.129906237125397, 0.168004095554352, 32135, 31380, 23431, NaN
1473465659.416, 0.00939739122986794, -0.130485191941261, 0.167608991265297, 32140, 31392, 23439, NaN
1473465660.416, 0.000562260102014989, -0.130440726876259, 0.168144479393959, 32143, 31393, 23422, NaN
1473465661.416, -0.00742408167570829, -0.13005830347538, 0.168368369340897, 32146, 31385, 23423, NaN
1473465662.416, -0.0138116711750627, -0.129956692457199, 0.168608710169792, 32138, 31388, 23427, NaN
1473465663.416, -0.0181518103927374, -0.130738332867622, 0.168540894985199, 32148, 31383, 23431, NaN
1473465664.416, -0.020867707207799, -0.13019748032093, 0.169513195753098, 32149, 31385, 23427, NaN
1473465665.416, -0.0222474448382854, -0.130310609936714, 0.169479221105576, 32149, 31378, 23425, NaN
1473465666.416, -0.0221762880682945, -0.130145788192749, 0.169186040759087, 32151, 31389, 23425, NaN
1473465667.416, -0.0197026766836643, -0.131304025650024, 0.168239265680313, 32161, 31397, 23431, NaN
1473465668.416, -0.0157659202814102, -0.131242156028748, 0.168634876608849, 32137, 31380, 23434, NaN
1473465669.426, -0.0103133898228407, -0.131090179085732, 0.16848449409008, 32150, 31384, 23433, NaN
1473465670.426, -0.00439816527068615, -0.131832614541054, 0.168745711445808, 32140, 31397, 23428, NaN
1473465670.426, 0.0022206932771951, -0.132082879543304, 0.168646395206451, 32144, 31389, 23417, NaN
1473465671.434, 0.00945016089826822, -0.132015362381935, 0.168467074632645, 32133, 31392, 23426, NaN
1473465672.434, 0.0167976450175047, -0.132258504629135, 0.168925002217293, 32143, 31376, 23432, NaN
1473465673.434, 0.022946871817112, -0.132570698857307, 0.168865457177162, 32137, 31390, 23435, NaN
1473465674.434, 0.0282058976590633, -0.132547676563263, 0.169698804616928, 32146, 31377, 23432, NaN
1473465674.434, 0.0334602184593678, -0.132299676537514, 0.169750273227692, 32147, 31375, 23428, NaN
1473465675.44, 0.0378252826631069, -0.132186979055405, 0.170123502612114, 32152, 31378, 23435, NaN
1473465676.44, 0.0423782616853714, -0.132389605045319, 0.169871985912323, 32130, 31385, 23430, NaN
1473465677.44, 0.0458528324961662, -0.13238637149334, 0.169348701834679, 32133, 31382, 23438, NaN
1473465678.44, 0.0493906140327454, -0.131763264536858, 0.169881373643875, 32147, 31387, 23435, NaN
1473465678.44, 0.0517795123159885, -0.132629618048668, 0.169939488172531, 32148, 31383, 23433, NaN
1473465679.444, 0.0530759170651436, -0.133052572607994, 0.170498296618462, 32138, 31386, 23424, NaN
1473465680.444, 0.0538520775735378, -0.132875338196754, 0.170236945152283, 32141, 31380, 23431, NaN
1473465681.444, 0.0537915825843811, -0.132724583148956, 0.170535638928413, 32154, 31392, 23421, NaN
1473465682.444, 0.0526002049446106, -0.133744895458221, 0.170558512210846, 32150, 31392, 23427, NaN
1473465682.444, 0.0508090071380138, -0.133621454238892, 0.170595064759254, 32126, 31396, 23438, NaN
1473465683.448, 0.0491835623979568, -0.133121058344841, 0.170988693833351, 32148, 31397, 23423, NaN
1473465684.448, 0.047112699598074, -0.134237602353096, 0.171412646770477, 32138, 31390, 23425, NaN
1473465685.448, 0.0435375422239304, -0.133517935872078, 0.17032890021801, 32142, 31388, 23419, NaN
1473465686.448, 0.0391902811825275, -0.133138567209244, 0.170280307531357, 32141, 31387, 23427, NaN
1473465687.448, 0.0340266413986683, -0.132468119263649, 0.170504093170166, 32160, 31397, 23416, NaN
1473465688.448, 0.0288638304919004, -0.132562220096588, 0.171016961336136, 32145, 31397, 23437, NaN
1473465689.448, 0.0243495907634497, -0.13322451710701, 0.170627266168594, 32136, 31386, 23439, NaN
1473465690.448, 0.0201546158641577, -0.133905008435249, 0.171182841062546, 32128, 31376, 23437, NaN
1473465691.448, 0.0165588781237602, -0.133940994739532, 0.171269595623016, 32145, 31388, 23429, NaN
1473465692.448, 0.0126534989103675, -0.133920326828957, 0.171206280589104, 32136, 31381, 23445, NaN
1473465693.448, 0.0074996892362833, -0.133575707674026, 0.171023204922676, 32145, 31389, 23433, NaN
1473465694.456, 0.0021577759180218, -0.133125752210617, 0.171497136354446, 32140, 31388, 23437, NaN
1473465695.456, -0.00281098647974432, -0.133691236376762, 0.171866789460182, 32134, 31385, 23434, NaN
1473465695.456, -0.00744963763281703, -0.134476915001869, 0.171905651688576, 32151, 31392, 23428, NaN
1473465696.464, -0.0128264129161835, -0.134402066469193, 0.172718852758408, 32143, 31388, 23434, NaN
1473465697.464, -0.0176686141639948, -0.134932592511177, 0.172236129641533, 32144, 31396, 23435, NaN
1473465698.464, -0.023133497685194, -0.134638950228691, 0.172191292047501, 32155, 31385, 23427, NaN
1473465699.464, -0.0270407814532518, -0.135271087288857, 0.172805786132812, 32124, 31382, 23438, NaN
1473465699.464, -0.0301214065402746, -0.13461846113205, 0.172780424356461, 32146, 31383, 23431, NaN
1473465700.47, -0.0311955995857716, -0.134620651602745, 0.172698527574539, 32148, 31383, 23435, NaN
1473465701.47, -0.0312934182584286, -0.134710222482681, 0.173145294189453, 32149, 31388, 23425, NaN
1473465702.47, -0.030690984800458, -0.134175628423691, 0.173988923430443, 32149, 31388, 23424, NaN
1473465703.47, -0.0294609945267439, -0.133913293480873, 0.172707676887512, 32149, 31386, 23418, NaN
1473465704.47, -0.0287444517016411, -0.133819133043289, 0.172853142023087, 32144, 31383, 23428, NaN
1473465705.47, -0.0286076907068491, -0.133132293820381, 0.173240810632706, 32141, 31385, 23438, NaN
1473465706.47, -0.0290913004428148, -0.133628726005554, 0.17349810898304, 32157, 31388, 23432, NaN
1473465707.47, -0.0290918722748756, -0.13361419737339, 0.173091277480125, 32126, 31394, 23428, NaN
1473465708.47, -0.0283273234963417, -0.133483961224556, 0.173321068286896, 32156, 31387, 23426, NaN
1473465709.47, -0.0272182635962963, -0.13310070335865, 0.172995790839195, 32148, 31388, 23429, 28.9823532104492
1473465710.47, -0.0267903506755829, -0.133509919047356, 0.172662869095802, 32152, 31390, 23421, NaN
1473465711.47, -0.0262888073921204, -0.133267745375633, 0.172947764396667, 32155, 31391, 23424, NaN
1473465712.47, -0.0263901427388191, -0.134303867816925, 0.173590943217278, 32146, 31392, 23434, NaN
1473465713.47, -0.0274624843150377, -0.134607180953026, 0.173510611057281, 32157, 31392, 23424, NaN
1473465714.47, -0.0275962296873331, -0.134447947144508, 0.173757553100586, 32148, 31385, 23438, NaN
1473465715.47, -0.0267017781734467, -0.133936375379562, 0.173603504896164, 32155, 31388, 23430, NaN
1473465716.47, -0.025263573974371, -0.1332888007164, 0.174214273691177, 32145, 31380, 23429, NaN
1473465717.47, -0.0225166864693165, -0.133706584572792, 0.174752220511436, 32142, 31388, 23435, NaN
1473465718.47, -0.0200017299503088, -0.133554443717003, 0.174540251493454, 32143, 31384, 23424, NaN
1473465719.47, -0.017674071714282, -0.134497135877609, 0.175070658326149, 32144, 31385, 23431, NaN
1473465720.47, -0.0152331115677953, -0.1345144957304, 0.175429075956345, 32141, 31384, 23430, NaN
1473465721.478, -0.0116247851401567, -0.134309083223343, 0.175212204456329, 32143, 31385, 23431, NaN
1473465722.478, -0.00935763213783503, -0.13365113735199, 0.175432041287422, 32150, 31385, 23426, NaN
1473465723.478, -0.00624305894598365, -0.132650271058083, 0.175955787301064, 32143, 31388, 23444, NaN
1473465723.478, -0.00337624200619757, -0.132715508341789, 0.175805553793907, 32153, 31379, 23424, NaN
1473465724.486, 0.000193680753000081, -0.132216975092888, 0.175662130117416, 32144, 31398, 23424, NaN
1473465725.486, 0.00257134134881198, -0.132342040538788, 0.176026120781898, 32149, 31389, 23414, NaN
1473465726.486, 0.00516877276822925, -0.131953731179237, 0.17652228474617, 32152, 31391, 23416, NaN
1473465727.486, 0.00711100688204169, -0.131264910101891, 0.175969004631042, 32150, 31387, 23424, NaN
1473465727.486, 0.00912174955010414, -0.130927890539169, 0.176453813910484, 32141, 31392, 23437, NaN
1473465728.492, 0.0106131937354803, -0.13116343319416, 0.177245154976845, 32146, 31388, 23436, NaN
1473465729.492, 0.0133031737059355, -0.130926951766014, 0.1778943836689, 32142, 31398, 23433, NaN
1473465730.492, 0.014699156396091, -0.131272166967392, 0.178257152438164, 32148, 31391, 23419, NaN
1473465731.492, 0.0160865914076567, -0.132114797830582, 0.178686320781708, 32153, 31381, 23421, NaN
1473465731.492, 0.0169084127992392, -0.132176011800766, 0.179491028189659, 32144, 31399, 23432, NaN
1473465732.496, 0.0180207975208759, -0.132091656327248, 0.180231392383575, 32136, 31388, 23439, NaN
1473465733.496, 0.0195309389382601, -0.131887748837471, 0.180658638477325, 32145, 31392, 23423, NaN
1473465734.496, 0.0237974561750889, -0.132166385650635, 0.181135430932045, 32135, 31387, 23433, NaN
1473465735.496, 0.0322122871875763, -0.132269337773323, 0.18131810426712, 32134, 31385, 23439, NaN
1473465735.496, 0.0447092205286026, -0.131355077028275, 0.181861981749535, 32139, 31394, 23436, NaN
1473465736.5, 0.0603467263281345, -0.132513284683228, 0.182264745235443, 32128, 31401, 23445, NaN
1473465737.5, 0.0778076276183128, -0.132812812924385, 0.18230813741684, 32140, 31382, 23437, NaN
1473465738.5, 0.0964634045958519, -0.13208332657814, 0.181195721030235, 32142, 31376, 23429, NaN
1473465739.5, 0.11593846231699, -0.131996467709541, 0.179721355438232, 32144, 31369, 23427, NaN
1473465739.5, 0.133704915642738, -0.132309287786484, 0.180115655064583, 32154, 31405, 23430, NaN
1473465740.502, 0.129981353878975, -0.132043480873108, 0.179734364151955, 32139, 31397, 23433, NaN
1473465741.502, 0.0824845731258392, -0.130519732832909, 0.179616183042526, 32145, 31379, 23427, NaN
1473465742.502, 0.0420623756945133, -0.1302669942379, 0.179572835564613, 32146, 31388, 23427, NaN
1473465743.502, 0.00816093944013119, -0.129161030054092, 0.179155141115189, 32155, 31390, 23420, NaN
1473465744.502, -0.0197673011571169, -0.129143744707108, 0.179128065705299, 32153, 31379, 23421, NaN
1473465745.502, -0.0422607138752937, -0.128941237926483, 0.179378882050514, 32162, 31392, 23419, NaN
1473465746.51, -0.0598454773426056, -0.129164785146713, 0.179761782288551, 32144, 31383, 23431, NaN
1473465747.51, -0.0730326697230339, -0.12781785428524, 0.180013865232468, 32141, 31381, 23439, NaN
1473465747.51, -0.0823155120015144, -0.127945557236671, 0.179366171360016, 32142, 31393, 23423, NaN
1473465748.518, -0.0881668403744698, -0.128769040107727, 0.179293319582939, 32140, 31388, 23439, NaN
1473465749.518, -0.0910368859767914, -0.128845825791359, 0.179816707968712, 32145, 31393, 23442, NaN
1473465750.518, -0.091351330280304, -0.129104182124138, 0.179089680314064, 32153, 31397, 23421, NaN
1473465751.518, -0.0895097330212593, -0.129109859466553, 0.179078504443169, 32142, 31391, 23425, NaN
1473465752.518, -0.0858843550086021, -0.128632798790932, 0.179004952311516, 32149, 31385, 23422, NaN
1473465753.518, -0.080819234251976, -0.128535941243172, 0.179163470864296, 32158, 31386, 23423, NaN
1473465754.518, -0.0746297240257263, -0.128159075975418, 0.17880468070507, 32152, 31400, 23436, NaN
1473465755.518, -0.0676023066043854, -0.12834806740284, 0.179385408759117, 32151, 31391, 23425, NaN
1473465756.518, -0.0599947199225426, -0.128128781914711, 0.178562209010124, 32135, 31380, 23442, NaN
1473465757.518, -0.0520364232361317, -0.127850219607353, 0.178162693977356, 32150, 31379, 23423, NaN
1473465758.518, -0.0439292788505554, -0.128544986248016, 0.178326919674873, 32143, 31389, 23430, NaN
1473465759.518, -0.0358485020697117, -0.129076927900314, 0.178189247846603, 32150, 31394, 23426, NaN
1473465760.518, -0.027943791821599, -0.129950538277626, 0.178515285253525, 32135, 31390, 23437, NaN
1473465761.518, -0.0203406605869532, -0.130585312843323, 0.179399773478508, 32136, 31376, 23441, NaN
1473465762.518, -0.0131418909877539, -0.130708783864975, 0.180110841989517, 32144, 31390, 23433, NaN
1473465763.518, -0.00642909063026309, -0.131132513284683, 0.180418431758881, 32133, 31403, 23423, 27.3070240020752
1473465764.518, -0.000264356174739078, -0.13142891228199, 0.180279269814491, 32143, 31394, 23424, NaN
1473465765.518, 0.00530803389847279, -0.131326302886009, 0.180324971675873, 32149, 31386, 23428, NaN
1473465766.518, 0.0102598918601871, -0.131144121289253, 0.180246189236641, 32139, 31376, 23440, NaN
1473465767.518, 0.0145773906260729, -0.131200924515724, 0.179977312684059, 32157, 31396, 23437, NaN
1473465768.518, 0.0181854702532291, -0.131087079644203, 0.179499328136444, 32135, 31395, 23434, NaN
1473465769.518, 0.0196063760668039, -0.131739675998688, 0.179345861077309, 32150, 31388, 23432, NaN
1473465770.518, 0.0194985121488571, -0.132458329200745, 0.179454147815704, 32148, 31386, 23435, NaN
1473465771.518, 0.0185622330754995, -0.132441058754921, 0.179382309317589, 32149, 31385, 23417, NaN
1473465772.518, 0.0177658591419458, -0.131935507059097, 0.17945009469986, 32149, 31391, 23434, NaN
1473465773.518, 0.0164012666791677, -0.132020071148872, 0.179321736097336, 32140, 31392, 23437, NaN
1473465774.526, 0.0149213662371039, -0.132446154952049, 0.178789615631104, 32156, 31383, 23418, NaN
1473465775.526, 0.0136609831824899, -0.132415965199471, 0.179325744509697, 32137, 31394, 23426, NaN
1473465776.526, 0.0123727982863784, -0.132200554013252, 0.179334208369255, 32138, 31395, 23428, NaN
1473465776.526, 0.011803025379777, -0.132576584815979, 0.178816810250282, 32152, 31388, 23433, NaN
1473465777.534, 0.011631247587502, -0.133196398615837, 0.177967146039009, 32149, 31401, 23426, NaN
1473465778.534, 0.0119860405102372, -0.134107828140259, 0.178105071187019, 32139, 31387, 23435, NaN
1473465779.534, 0.0114502869546413, -0.134253367781639, 0.17778292298317, 32157, 31381, 23422, NaN
1473465780.534, 0.0115022081881762, -0.134530588984489, 0.177999749779701, 32143, 31382, 23420, NaN
1473465780.534, 0.0117806363850832, -0.134762734174728, 0.17835995554924, 32150, 31394, 23428, NaN
1473465781.54, 0.0106149557977915, -0.134732395410538, 0.178243234753609, 32154, 31390, 23421, NaN
1473465782.54, 0.0102937296032906, -0.133807167410851, 0.178216442465782, 32149, 31393, 23439, NaN
1473465783.54, 0.0103623932227492, -0.13360421359539, 0.17768432199955, 32132, 31382, 23437, NaN
1473465784.54, 0.0108046280220151, -0.13280189037323, 0.176947414875031, 32141, 31394, 23431, NaN
1473465784.54, 0.0119732497259974, -0.133740469813347, 0.176712438464165, 32141, 31384, 23415, NaN
1473465785.544, 0.0137027325108647, -0.133497968316078, 0.176522940397263, 32150, 31394, 23424, NaN
1473465786.544, 0.01465218141675, -0.133472636342049, 0.175935357809067, 32147, 31392, 23427, NaN
1473465787.544, 0.0162995252758265, -0.134350091218948, 0.175606280565262, 32133, 31381, 23426, NaN
1473465788.544, 0.0173918064683676, -0.133917942643166, 0.175448328256607, 32140, 31384, 23426, NaN
1473465788.544, 0.01911885663867, -0.13430817425251, 0.175455763936043, 32142, 31403, 23430, NaN
1473465789.546, 0.019916033372283, -0.13459038734436, 0.174949124455452, 32134, 31383, 23435, NaN
1473465790.546, 0.0212821178138256, -0.135000333189964, 0.174377128481865, 32138, 31387, 23428, NaN
1473465791.546, 0.0234322920441628, -0.135696947574615, 0.174414694309235, 32159, 31382, 23427, NaN
1473465792.546, 0.0273927487432957, -0.136053398251534, 0.174304828047752, 32134, 31384, 23435, NaN
1473465792.546, 0.0327668078243732, -0.136291906237602, 0.173629820346832, 32147, 31388, 23426, NaN
1473465793.548, 0.0417487733066082, -0.135966598987579, 0.172860622406006, 32155, 31376, 23422, NaN
1473465794.548, 0.0528635159134865, -0.136475682258606, 0.173017337918282, 32144, 31393, 23424, NaN
1473465795.548, 0.0662894025444984, -0.137080520391464, 0.172838136553764, 32150, 31390, 23421, NaN
1473465796.548, 0.0807341113686562, -0.137702837586403, 0.172623857855797, 32142, 31372, 23414, NaN
1473465797.548, 0.0728923082351685, -0.138471215963364, 0.172921001911163, 32142, 31395, 23434, NaN
1473465798.556, 0.0493115410208702, -0.139344662427902, 0.172706440091133, 32140, 31375, 23422, NaN
1473465799.556, 0.0288748033344746, -0.139534056186676, 0.172155007719994, 32154, 31395, 23423, NaN
1473465800.556, 0.0113849546760321, -0.140037924051285, 0.172232583165169, 32139, 31393, 23425, NaN
1473465801.556, -0.00336033781059086, -0.140216782689095, 0.172191798686981, 32130, 31391, 23434, NaN
1473465802.556, -0.0155667820945382, -0.140008300542831, 0.172509893774986, 32146, 31386, 23432, NaN
1473465803.556, -0.0254415925592184, -0.14026166498661, 0.173689693212509, 32142, 31386, 23434, NaN
1473465804.556, -0.0331916436553001, -0.140288516879082, 0.173511371016502, 32155, 31395, 23433, NaN
1473465805.556, -0.0390216745436192, -0.139777392148972, 0.173334151506424, 32137, 31392, 23433, NaN
1473465806.556, -0.0431325882673264, -0.140247777104378, 0.173639938235283, 32158, 31381, 23417, NaN
1473465807.556, -0.0457198806107044, -0.14056958258152, 0.174623474478722, 32133, 31393, 23440, NaN
1473465808.556, -0.0469722487032413, -0.140530928969383, 0.174705997109413, 32140, 31384, 23436, NaN
1473465809.556, -0.0470703169703484, -0.139315992593765, 0.17457190155983, 32133, 31394, 23433, NaN
1473465810.556, -0.0461855791509151, -0.140413761138916, 0.174169450998306, 32144, 31392, 23425, NaN
1473465811.556, -0.0444795191287994, -0.139819473028183, 0.174440339207649, 32149, 31386, 23428, NaN
1473465812.556, -0.0421029143035412, -0.140413999557495, 0.173941165208817, 32146, 31397, 23423, NaN
1473465813.556, -0.0391952954232693, -0.139933988451958, 0.173909321427345, 32141, 31393, 23430, NaN
1473465814.556, -0.0358846262097359, -0.141517281532288, 0.174314841628075, 32140, 31395, 23434, NaN
1473465815.556, -0.0322871133685112, -0.141687676310539, 0.174484238028526, 32154, 31396, 23426, NaN